Lexington Weather

Lexington, Massachusetts, USA

32°F
11/15/2019 3:37am 
  • Lexington Conditions: Clear
  • Temperature: 32.0°F / 0.0°CColder 0.2°F than last hour.
  • Dew Point: 28.9°FDecreased 0.8°Fsince last hour.
  • Relative Humidity: 88%Decreased 2.0% since last hour.
  • Wind: Wind from WSW WSW 3 mph, 10-min avg: 1 mph, gust: 4 mph
  • Barometer: 30.16 inFalling 0.02  inHg/hr Falling Slowly
  • Visibility: 10 miles
  • Snow Today: 0.0 in
  •   

Regional Weather Roundup
for Boston / Norton, MA

        
000
ASUS41 KBOX 141501
RWRBOX

REGIONAL WEATHER ROUNDUP
NATIONAL WEATHER SERVICE BOSTON/NORTON MA
1000 AM EST THU NOV 14 2019

NOTE:  "FAIR" INDICATES FEW OR NO CLOUDS BELOW 12,000 FEET WITH NO 
SIGNIFICANT WEATHER AND/OR OBSTRUCTIONS TO VISIBILITY.

MAZALL-141600-
EASTERN MASSACHUSETTS
  
CITY           SKY/WX    TMP DP  RH WIND       PRES   REMARKS
BOSTON         CLOUDY    32  17  54 S5        30.51F WCI  27          
BEVERLY        FAIR      28  13  53 SW3       30.50S                  
LAWRENCE       FAIR      25  11  55 CALM      30.52R                  
BEDFORD        PTSUNNY   28  14  55 SW3       30.49F                  
BLUE HILL        N/A     28  14  55 S7        30.45S WCI  21          
NORWOOD        FAIR      32  14  47 VRB3      30.50F                  
MARSHFIELD     NOT AVBL                                               
PLYMOUTH       FAIR      32  18  56 S3        30.50F                  
TAUNTON        FAIR      31  15  52 CALM      30.49F                  
NEW BEDFORD    FAIR      33  20  58 SE5       30.48F WCI  29          
$$

MAZALL-141600-
CAPE COD AND THE ISLANDS
  
CITY           SKY/WX    TMP DP  RH WIND       PRES   REMARKS
FALMOUTH       SUNNY     32  21  64 S8        30.50R WCI  25          
HYANNIS        FAIR      36  24  62 VRB5      30.49S                  
CHATHAM        FAIR      36  24  62 S6        30.51S WCI  31          
PROVINCETOWN   FAIR      35  25  66 SW9       30.51S WCI  28          
NANTUCKET      FAIR      38  25  59 S6        30.50S                  
MARTHAS VNYRD  PTSUNNY   38  25  59 SE7       30.48F                  
$$
 
MAZALL-141600-
CENTRAL AND WESTERN MASSACHUSETTS
  
CITY           SKY/WX    TMP DP  RH WIND       PRES   REMARKS
WORCESTER      FAIR      25  10  53 S7        30.42S WCI  17          
FITCHBURG      PTSUNNY   25  11  55 SE5       30.48S WCI  19          
ORANGE         CLOUDY    26  10  50 SE9       30.45F WCI  17          
SPRINGFIELD    NOT AVBL                                               
WESTFIELD      CLOUDY    23  11  60 CALM      30.46F                  
NORTH ADAMS    FAIR      26  11  52 E9G16     30.39F WCI  17          
PITTSFIELD     CLOUDY    25  11  55 E7        30.35F WCI  17          
$$
 
RIZALL-141600-
RHODE ISLAND
  
CITY           SKY/WX    TMP DP  RH WIND       PRES   REMARKS
PROVIDENCE     PTSUNNY   30  16  56 E5        30.50S WCI  25          
NEWPORT        PTSUNNY   34  23  64 E7        30.47F WCI  28          
BLOCK ISLAND   CLOUDY    39  27  62 S9        30.47S                  
SMITHFIELD     FAIR      29  17  61 E3        30.47F                  
WESTERLY       CLOUDY    32  18  56 N5        30.48S WCI  27          
$$
 
CTZALL-141600-
CONNECTICUT
  
CITY           SKY/WX    TMP DP  RH WIND       PRES   REMARKS
BRADLEY INTL   CLOUDY    27  13  55 CALM      30.47F                  
HARTFORD       PTSUNNY   28  14  55 CALM      30.48F                  
BRIDGEPORT     PTSUNNY   33  20  58 N8        30.46S WCI  26          
DANBURY        FAIR      27  15  61 CALM      30.44F                  
GROTON         CLOUDY    34  21  59 N6        30.47F WCI  29          
NEW HAVEN      CLOUDY    36  23  59 N5        30.45F                  
CHESTER        FAIR      32  19  59 SE5       30.44F WCI  27          
MERIDEN        FAIR      28  15  58 NW5       30.46F WCI  23          
WILLIMANTIC    CLOUDY    24  15  68 CALM      30.49S                  
OXFORD         PTSUNNY   29  20  69 VRB3      30.43S                  
$$

MEZ002-015-021-024-NHZ003-005-008-011-012-014-VTZ005-008-141600-
NORTHERN NEW ENGLAND
  
CITY           SKY/WX    TMP DP  RH WIND       PRES   REMARKS
PORTLAND ME    CLOUDY    25  13  60 N3        30.50S                  
BANGOR ME      CLOUDY    20  13  74 CALM      30.50F                  
CONCORD NH     CLOUDY    21  11  65 CALM      30.48S                  
MANCHESTER NH  CLOUDY    22  10  60 CALM      30.48S                  
NASHUA NH      PTSUNNY   24  17  74 CALM      30.50S                  
PORTSMOUTH NH  CLOUDY    25  12  56 W3        30.49R                  
JAFFREY NH     CLOUDY    23   7  50 S6        30.41F WCI  16          
KEENE NH       CLOUDY    24  13  62 S5        30.44F WCI  18          
BURLINGTON VT  CLOUDY    25   8  48 S9        30.34F WCI  15          
MT. WASHINGTON NOT AVBL                                               
$$

NYZ052-076-141600-
EASTERN NEW YORK
  
CITY           SKY/WX    TMP DP  RH WIND       PRES   REMARKS
ALBANY         CLOUDY    28  12  51 S14G26    30.39F WCI  17          
NEW YORK CITY  CLOUDY    36  20  52 NE3       30.45F                  
$$
 
ANZALL-141600-
MARINE OBSERVATIONS
  
STATION/POSITION TIME  TEMP    WIND        PRES    VSBY  WAVE
                       AIR SEA DIR/SP/G                  HT/PER
                 (UTC) (F)     (DEG/KT/KT) (MB)    (MI)  (FT/S)
BOSTON BUOY      1350   31 52  240/  6/ 10 1032.6          1/ 4
BUZZARDS BAY     1400   35     120/ 11/ 13 1032.7S
NANTUCKET SOUND  NOT AVBL
MASS BAY-STELLWA 1404   31 51  260/  6/ 10 1032.7R  1 7/8  1/ 4
ISLE OF SHOALS   1400   27     270/  4/  7 1032.4R
S OF BLOCK IS    1430      58                N/A           1/14
$$

......................KEY.........................
  SKY/WX - SKY CONDITION/PRESENT WEATHER
  TMP    - TEMPERATURE IN FAHRENHEIT
  DWPT   - DEWPOINT IN FAHRENHEIT
  RH     - RELATIVE HUMIDITY IN PERCENT
  WIND   - DIRECTION AND SPEED IN MPH
  PRES   - MEAN SEA LEVEL PRESSURE IN INCHES OF HG
  WCI    - WIND CHILL INDEX
  VSB    - VISIBILITY IN MILES
  HX     - HEAT INDEX
  TC     - TEMPERATURE IN CELSIUS
  VRB    - VARIABLE WIND DIRECTION
  N/A    - NOT AVAILABLE
  
      

Other recent Regional Weather Roundups

Fri Nov 15, 3:10am

Fri Nov 15, 3:00am

Fri Nov 15, 2:10am

Fri Nov 15, 2:00am

Fri Nov 15, 1:10am

Fri Nov 15, 1:00am

Fri Nov 15, 12:10am

Fri Nov 15, 12:00am

Thu Nov 14, 11:10pm

Thu Nov 14, 11:00pm

Thu Nov 14, 10:10pm

Thu Nov 14, 10:00pm

Thu Nov 14, 9:10pm

Thu Nov 14, 9:00pm

Thu Nov 14, 8:10pm

Thu Nov 14, 8:00pm

Thu Nov 14, 7:10pm

Thu Nov 14, 7:00pm

Thu Nov 14, 6:10pm

Thu Nov 14, 6:01pm

Thu Nov 14, 5:10pm

Thu Nov 14, 5:00pm

Thu Nov 14, 4:10pm

Thu Nov 14, 4:00pm

Thu Nov 14, 3:10pm

Thu Nov 14, 3:00pm

Thu Nov 14, 2:10pm

Thu Nov 14, 2:00pm

Thu Nov 14, 1:10pm

Thu Nov 14, 1:00pm

Thu Nov 14, 12:10pm

Thu Nov 14, 12:01pm

Thu Nov 14, 11:10am

Thu Nov 14, 11:00am

Thu Nov 14, 10:10am

Thu Nov 14, 9:10am

Thu Nov 14, 9:00am

Thu Nov 14, 8:10am

Thu Nov 14, 8:00am

Thu Nov 14, 7:10am

Thu Nov 14, 7:00am

Thu Nov 14, 6:10am

Thu Nov 14, 6:00am

Thu Nov 14, 5:10am

Thu Nov 14, 5:00am

Thu Nov 14, 4:10am

Thu Nov 14, 4:00am

Thu Nov 14, 3:10am

Thu Nov 14, 3:00am

Thu Nov 14, 2:10am

Thu Nov 14, 2:00am

Thu Nov 14, 1:10am

Thu Nov 14, 1:00am

Thu Nov 14, 12:10am

Thu Nov 14, 12:00am

Wed Nov 13, 11:10pm

Wed Nov 13, 11:00pm

Wed Nov 13, 10:10pm

Wed Nov 13, 10:00pm

Wed Nov 13, 9:10pm

Wed Nov 13, 9:00pm

Wed Nov 13, 8:10pm

Wed Nov 13, 8:00pm

Wed Nov 13, 7:10pm

Wed Nov 13, 7:00pm

Wed Nov 13, 6:10pm

Wed Nov 13, 6:01pm

Wed Nov 13, 5:10pm

Wed Nov 13, 5:00pm

Wed Nov 13, 4:10pm

Wed Nov 13, 4:00pm

Wed Nov 13, 3:10pm

Wed Nov 13, 3:01pm

Wed Nov 13, 2:10pm

Wed Nov 13, 2:01pm

Wed Nov 13, 1:10pm

Wed Nov 13, 1:00pm

Wed Nov 13, 12:10pm

Wed Nov 13, 12:01pm

Wed Nov 13, 11:10am

Wed Nov 13, 11:00am

Wed Nov 13, 10:10am

Wed Nov 13, 10:00am

Wed Nov 13, 9:10am

Wed Nov 13, 9:00am

Wed Nov 13, 8:10am

Wed Nov 13, 8:00am

Wed Nov 13, 7:10am

Wed Nov 13, 7:00am

Wed Nov 13, 6:10am

Wed Nov 13, 6:00am

Wed Nov 13, 5:10am

Wed Nov 13, 5:00am

Wed Nov 13, 4:10am

Wed Nov 13, 4:00am

Wed Nov 13, 3:10am

Wed Nov 13, 3:00am

Wed Nov 13, 2:10am

Wed Nov 13, 2:00am

Wed Nov 13, 1:10am

Wed Nov 13, 1:00am

Wed Nov 13, 12:10am

Wed Nov 13, 12:00am

Tue Nov 12, 11:10pm

Tue Nov 12, 11:00pm

Tue Nov 12, 10:10pm

Tue Nov 12, 10:00pm

Tue Nov 12, 9:10pm

Tue Nov 12, 9:00pm

Tue Nov 12, 8:10pm

Tue Nov 12, 8:00pm

Tue Nov 12, 7:10pm

Tue Nov 12, 7:01pm

Tue Nov 12, 6:10pm

Tue Nov 12, 6:01pm

Tue Nov 12, 5:10pm

Tue Nov 12, 5:01pm

Tue Nov 12, 4:10pm

Tue Nov 12, 4:01pm

Tue Nov 12, 3:10pm

Tue Nov 12, 3:00pm

Tue Nov 12, 2:10pm

Tue Nov 12, 2:00pm

Tue Nov 12, 1:10pm

Tue Nov 12, 1:00pm

Tue Nov 12, 12:10pm

Tue Nov 12, 12:00pm

Tue Nov 12, 11:10am

Tue Nov 12, 11:00am

Tue Nov 12, 10:10am

Tue Nov 12, 10:01am

Tue Nov 12, 9:10am

Tue Nov 12, 9:00am

Tue Nov 12, 8:10am

Tue Nov 12, 8:00am

Tue Nov 12, 7:10am

Tue Nov 12, 7:00am

Tue Nov 12, 6:10am

Tue Nov 12, 6:00am

Tue Nov 12, 5:10am

Tue Nov 12, 5:01am

Tue Nov 12, 4:10am

Tue Nov 12, 4:00am

Meta data:

ID: f8ef40ed-1774-4f5e-a735-0b18228b64e1
Link: https://api.weather.gov/products/f8ef40ed-1774-4f5e-a735-0b18228b64e1